Find Starlink 38378

NORAD ID: 100527 Int'l Des: 2026-197 Owner: SPXS Country: US Constellation: starlink operational

当前视图

正在加载3D地球...

About Starlink 38378

Starlink 38378 (NORAD 100527) is a starlink constellation satellite launched Aug 26, 2026 by SPXS of US. with a mass of 575.00 kg.

即将过境

Passes for default location (London). Set your location on the main map for personalized predictions.

高度历史

Loading altitude history...

两行轨道根数

1 A0527U 26197AB 26263.80511321 .00203117 00000-0 11876-2 0 9998
2 A0527 69.9989 120.9444 0003759 271.8746 88.2023 15.77619470 4036
Epoch: Sep 20, 2026 • Age: 13 hours

当前状态

高度 359.4 km
远地点 / 近地点 N/A
速度 7.69 km/s
星下点 -69.36°S, 116.12°W
发射日期 Aug 26, 2026
运行时间 25 days
类型 internet

技术详情

分类 Payload
质量 575.00 kg
干质量 530.00 kg
长度 0.30 m
跨度 29.00 m
形状 ? Box + pan
制造商 SPXS
平台类型 Starlink V2MO
阶段状态 In Orbit
所有者/国家 SPXS/US

Most Searched